User: anonymous   Login
Location: Unspecified
(0.0000°N, 0.0000°E)
Time: 17:45:43
(UTC+00:00)
Language:

Hubble Space Telescope - Orbit

View from above orbital plane
View from above orbital plane
View from above satellite
View from above satellite

Ground track
Ground track

The orbit data is extracted from the following two-line orbital elements,

1 20580U 90037B   19169.22074953  .00000320  00000-0  85044-5 0  9993
2 20580  28.4682 215.0529 0002926 116.8572 325.1844 15.09236445400819
Epoch (UTC): 18 June 2019 05:17:52
Eccentricity: 0.0002926
inclination: 28.4682°
perigee height: 536 km
apogee height: 540 km
right ascension of ascending node: 215.0529°
argument of perigee: 116.8572°
revolutions per day: 15.09236445
mean anomaly at epoch: 325.1844°
orbit number at epoch: 40081

The dashed part of the orbit path shows where the satellite is in the earth's shadow,  

DLR